FENGYUN 1C DEB, 41011

Orbit data source: Space-Track

FENGYUN 1C DEB, 41011 is space debris in SSO originally from a launch on Mon, 10 May 1999 UTC launched from the Taiyaun Space Center, China (TSC). Fengyun 1C debris stems from the Chinese weather satellite Fengyun-1C, which was intentionally destroyed by a Chinese anti-satellite missile in 2007. This event dramatically increased the amount of space debris, with thousands of trackable fragments posing hazards to satellites and human spaceflight. The Fengyun 1C debris cloud has become a focal point in discussions about space sustainability and the need for international regulations to prevent the creation of new debris.

Loading next visibility...
Identifier
41011, 1999-025EXR
Orbit
SSO
Country
Flag of CNCN / PRC
Related business
Manufacturer
Unknown
Mission
Spacecraft
Bus & Motor
Unknown
Mass
Unknown
Launch date (UTC)
1999-05-10 (27 years ago)
Launch vehicle
Unknown
Launch site
Taiyaun Space Center, China (TSC)
Object type
Payload
Rocket body
Debris
Shape & HBR
Unknown shape, 0.1 m
Radar Cross Section
Small (<0.1 m²)

Expand to show TLE details & history
Last TLE update: 14 hours ago

TLE from 14 hours ago
0 FENGYUN 1C DEB
1 41011U 99025EXR 26171.45870813  .00003292  00000-0  54863-3 0  9990
2 41011  99.1413 236.0192 0306502 156.3134 205.2515 14.44213196598948
Epoch: 2026-06-20T11:00Z
TLE epoch observation values (Epoch: 2026-06-20T11:00:32.382Z)
Latitude
-0.00003°
Longitude
162.21124°
Altitude
946.212 km
Speed
7.275 km/s
True Right ascension
15h 44m 04s
True Declination
0° 00' 00"
Sunlit
Object was in full shadow at epoch
Visualization orbit readout
Latitude
Unknown
Longitude
Unknown
Altitude
Unknown
Speed
Unknown
Apparent Right ascension
Unknown
Apparent Declination
Unknown
Sunlit
N/A
Visualization observer readout
Local Sidereal Time
12:13:54
Azimuth
Unknown
Elevation
Unknown
Doppler factor
Unknown
Orbital elements
Apogee altitude
959.982 km
Perigee altitude
523.529 km
Semi-major axis
7,119.893 km
Eccentricity
0.03065
Inclination
99.1413°
RAAN
236.0192°
Arg. of periapsis
156.3134°
True anomaly
203.8036°
Mean anomaly
205.2515°
Eccentric anomaly
204.52262°
Mean motion
3.61271 °/min
Orbital period
99.65 mins
BSTAR
0.00054863
Loading maneuver chart data...
Computing Atmospheric mass density...

Documentation

Showing up to 5 results
|